TimePST,TemperatureF,Dew PointF,Humidity,Sea Level PressureIn,VisibilityMPH,Wind Direction,Wind SpeedMPH,Gust SpeedMPH,PrecipitationIn,Events,Conditions,WindDirDegrees,DateUTC
12:08 AM,42.8,39.2,87,30.03,10.0,SSE,9.2,-,0.00,Rain,Light Rain,160,2012-12-07 08:08:00
12:51 AM,42.8,37.4,81,30.01,10.0,SE,11.5,-,0.00,Rain,Light Rain,140,2012-12-07 08:51:00
12:53 AM,43.0,37.9,82,30.03,10.0,SSE,12.7,-,0.00,Rain,Light Rain,150,2012-12-07 08:53:00
1:53 AM,44.1,37.9,79,30.02,10.0,South,13.8,26.5,0.00,Rain,Light Rain,180,2012-12-07 09:53:00
2:03 AM,44.6,39.2,81,29.99,7.0,SSE,19.6,29.9,0.01,Rain,Light Rain,160,2012-12-07 10:03:00
2:31 AM,42.8,39.2,87,29.98,10.0,SSE,15.0,23.0,0.01,Rain,Light Rain,150,2012-12-07 10:31:00
2:53 AM,44.1,39.0,82,30.01,10.0,SSE,17.3,25.3,0.01,,Overcast,160,2012-12-07 10:53:00
3:53 AM,44.1,39.0,82,30.00,10.0,SSE,10.4,23.0,0.00,Rain,Light Rain,160,2012-12-07 11:53:00
4:34 AM,44.6,39.2,81,29.96,10.0,South,10.4,-,0.00,,Overcast,170,2012-12-07 12:34:00
4:53 AM,44.1,39.9,85,29.98,10.0,South,9.2,-,0.00,Rain,Light Rain,170,2012-12-07 12:53:00
5:53 AM,44.1,39.9,85,29.96,10.0,SSE,15.0,21.9,0.00,,Overcast,160,2012-12-07 13:53:00
6:31 AM,44.6,39.2,81,29.93,10.0,South,12.7,23.0,0.00,Rain,Light Rain,170,2012-12-07 14:31:00
6:53 AM,43.0,39.9,89,29.95,10.0,SSE,12.7,-,0.00,Rain,Light Rain,160,2012-12-07 14:53:00
7:02 AM,42.8,39.2,87,29.92,9.0,South,15.0,23.0,0.00,Rain,Light Rain,170,2012-12-07 15:02:00
7:09 AM,42.8,39.2,87,29.93,10.0,SSE,11.5,23.0,0.00,Rain,Light Rain,160,2012-12-07 15:09:00
7:40 AM,42.8,39.2,87,29.92,10.0,SSE,15.0,20.7,0.00,Rain,Light Rain,150,2012-12-07 15:40:00
7:53 AM,43.0,39.0,86,29.94,10.0,SSE,11.5,-,0.00,Rain,Light Rain,150,2012-12-07 15:53:00
8:23 AM,44.6,39.2,81,29.91,7.0,Variable,4.6,-,0.01,Rain,Light Rain,0,2012-12-07 16:23:00
8:53 AM,43.0,39.0,86,29.94,10.0,SSW,5.8,-,0.05,Rain,Light Rain,210,2012-12-07 16:53:00
9:44 AM,44.6,39.2,81,29.91,10.0,SSW,8.1,-,N/A,,Scattered Clouds,200,2012-12-07 17:44:00
9:53 AM,45.0,39.9,82,29.95,10.0,SSW,6.9,-,N/A,,Scattered Clouds,200,2012-12-07 17:53:00
10:53 AM,41.0,37.0,86,29.96,10.0,SSE,3.5,-,N/A,,Mostly Cloudy,150,2012-12-07 18:53:00
11:53 AM,44.1,37.9,79,29.95,10.0,Calm,Calm,-,N/A,,Mostly Cloudy,0,2012-12-07 19:53:00
12:53 PM,45.0,36.0,71,29.97,10.0,WSW,10.4,18.4,N/A,,Overcast,250,2012-12-07 20:53:00
1:08 PM,41.0,35.6,81,29.96,2.5,WNW,12.7,27.6,0.04,Rain,Heavy Rain,300,2012-12-07 21:08:00
1:20 PM,39.2,35.6,87,29.96,10.0,NW,9.2,-,0.04,Rain,Light Rain,320,2012-12-07 21:20:00
1:53 PM,41.0,36.0,82,30.01,10.0,Variable,5.8,-,0.04,,Mostly Cloudy,0,2012-12-07 21:53:00
2:53 PM,43.0,35.1,74,30.01,10.0,Variable,5.8,-,N/A,,Scattered Clouds,0,2012-12-07 22:53:00
3:53 PM,42.1,33.1,70,30.03,10.0,Variable,6.9,-,N/A,,Partly Cloudy,0,2012-12-07 23:53:00
4:53 PM,42.1,32.0,67,30.05,10.0,Variable,3.5,-,N/A,,Clear,0,2012-12-08 00:53:00
5:53 PM,42.1,32.0,67,30.07,10.0,Calm,Calm,-,N/A,,Partly Cloudy,0,2012-12-08 01:53:00
6:53 PM,42.1,34.0,73,30.08,10.0,Variable,4.6,-,N/A,,Overcast,0,2012-12-08 02:53:00
7:53 PM,41.0,34.0,76,30.09,10.0,SSE,3.5,-,N/A,,Partly Cloudy,160,2012-12-08 03:53:00
8:53 PM,39.9,34.0,79,30.11,10.0,Calm,Calm,-,N/A,,Mostly Cloudy,0,2012-12-08 04:53:00
9:36 PM,41.0,33.8,76,30.09,10.0,Calm,Calm,-,N/A,,Overcast,0,2012-12-08 05:36:00
9:43 PM,41.0,33.8,76,30.09,10.0,WSW,3.5,-,N/A,,Overcast,240,2012-12-08 05:43:00
9:53 PM,41.0,34.0,76,30.12,10.0,Calm,Calm,-,N/A,,Mostly Cloudy,0,2012-12-08 05:53:00
10:01 PM,41.0,33.8,76,30.09,10.0,Calm,Calm,-,N/A,,Mostly Cloudy,0,2012-12-08 06:01:00
10:53 PM,39.9,34.0,79,30.14,10.0,Calm,Calm,-,N/A,,Mostly Cloudy,0,2012-12-08 06:53:00
11:06 PM,39.2,33.8,81,30.11,10.0,Calm,Calm,-,N/A,,Mostly Cloudy,0,2012-12-08 07:06:00
11:53 PM,39.0,35.1,86,30.14,10.0,Calm,Calm,-,N/A,,Overcast,0,2012-12-08 07:53:00